Weather History for KCVO - July, 2013

Change the Weather History Date:

Wednesday, July 3, 2013

  Actual Average Record
Temperature  
Mean Temperature 74 °F -  
Max Temperature 91 °F 78 °F 96 °F (2015)
Min Temperature 57 °F 51 °F 41 °F (1999)
Cooling Degree Days 9    
Growing Degree Days 24 (Base 50)    
Moisture  
Dew Point 50 °F    
Average Humidity 51    
Maximum Humidity 88    
Minimum Humidity 20    
Precipitation  
Precipitation 0.00 in - - ()
Sea Level Pressure  
Sea Level Pressure 30.09 in    
Wind  
Wind Speed 11 mph (NW)    
Max Wind Speed 21 mph    
Max Gust Speed 26 mph    
Visibility 10 miles    
Events      
Averages and records for this station are not official NWS values.
T = Trace of Precipitation, MM = Missing Value Source: NWS Daily Summary

Daily Weather History Graph

Daily Weather History Graph

Search for Another Location

Airport or City:

Trip Planner

Search our weather history database for the weather conditions in past years. The results will help you decide how hot, cold, wet, or windy it might be!

Date:

Astronomy

Jul. 03, 2013 Rise Set
Actual Time 5:33 AM PDT 9:01 PM PDT
Civil Twilight 4:57 AM PDT 9:37 PM PDT
Nautical Twilight 4:09 AM PDT 10:25 PM PDT
Astronomical Twilight 3:07 AM PDT 11:26 PM PDT
Moon 2:19 AM PDT (7/3) 5:12 PM PDT (7/3)
Length of Visible Light 16h 40m
Length of Day
15h 27m
Waning Crescent, 17% of the Moon is Illuminated
Jul 3
Waning Crescent
Jul 8
New
Jul 15
First Quarter
Jul 22
Full
Jul 29
Last Quarter

Hourly Weather History & Observations

Time (PDT) Temp. Heat Index Dew Point Humidity Pressure Visibility Wind Dir Wind Speed Gust Speed Precip Events Conditions
12:15 AM 64.4 °F - 55.4 °F 73% 30.08 in 10.0 mi West 12.7 mph - N/A   Clear
12:35 AM 64.4 °F - 55.4 °F 73% 30.08 in 10.0 mi WNW 15.0 mph - N/A   Clear
12:55 AM 64.4 °F - 55.4 °F 73% 30.08 in 10.0 mi West 12.7 mph - N/A   Clear
1:15 AM 62.6 °F - 55.4 °F 77% 30.08 in 10.0 mi West 15.0 mph - N/A   Clear
1:35 AM 62.6 °F - 55.4 °F 77% 30.08 in 10.0 mi West 13.8 mph - N/A   Clear
1:55 AM 62.6 °F - 55.4 °F 77% 30.09 in 10.0 mi WNW 11.5 mph - N/A   Clear
2:15 AM 60.8 °F - 55.4 °F 82% 30.09 in 10.0 mi West 11.5 mph - N/A   Clear
2:35 AM 60.8 °F - 55.4 °F 82% 30.10 in 10.0 mi WNW 9.2 mph - N/A   Clear
2:55 AM 60.8 °F - 55.4 °F 82% 30.10 in 10.0 mi WNW 8.1 mph - N/A   Clear
3:15 AM 60.8 °F - 55.4 °F 82% 30.10 in 10.0 mi WNW 9.2 mph - N/A   Clear
3:35 AM 60.8 °F - 55.4 °F 82% 30.11 in 10.0 mi WNW 9.2 mph - N/A   Clear
3:55 AM 60.8 °F - 55.4 °F 82% 30.11 in 10.0 mi WNW 8.1 mph - N/A   Clear
4:15 AM 59.0 °F - 53.6 °F 82% 30.12 in 10.0 mi West 10.4 mph - N/A   Clear
4:35 AM 59.0 °F - 53.6 °F 82% 30.12 in 10.0 mi WNW 11.5 mph - N/A   Clear
4:55 AM 59.0 °F - 53.6 °F 82% 30.12 in 10.0 mi WNW 11.5 mph - N/A   Clear
5:15 AM 57.2 °F - 53.6 °F 88% 30.12 in 10.0 mi WNW 5.8 mph - N/A   Clear
5:35 AM 57.2 °F - 53.6 °F 88% 30.13 in 10.0 mi WNW 8.1 mph - N/A   Clear
5:55 AM 57.2 °F - 53.6 °F 88% 30.13 in 10.0 mi West 8.1 mph - N/A   Clear
6:15 AM 57.2 °F - 53.6 °F 88% 30.14 in 10.0 mi West 5.8 mph - N/A   Clear
6:35 AM 59.0 °F - 53.6 °F 82% 30.13 in 10.0 mi WNW 5.8 mph - N/A   Clear
6:55 AM 60.8 °F - 53.6 °F 77% 30.14 in 10.0 mi WNW 6.9 mph - N/A   Clear
7:15 AM 62.6 °F - 53.6 °F 72% 30.13 in 10.0 mi WNW 6.9 mph - N/A   Clear
7:35 AM 64.4 °F - 53.6 °F 68% 30.13 in 10.0 mi WNW 5.8 mph - N/A   Clear
7:55 AM 66.2 °F - 53.6 °F 64% 30.14 in 10.0 mi West 4.6 mph - N/A   Clear
8:15 AM 68.0 °F - 53.6 °F 60% 30.14 in 10.0 mi NNW 4.6 mph - N/A   Clear
8:35 AM 69.8 °F - 51.8 °F 53% - 10.0 mi NNW 8.1 mph - N/A   Clear
8:55 AM 71.6 °F - 48.2 °F 43% 30.13 in 8.0 mi North 9.2 mph - N/A   Clear
9:15 AM 71.6 °F - 46.4 °F 41% 30.13 in 10.0 mi NNE 6.9 mph - N/A   Clear
9:35 AM 73.4 °F - 44.6 °F 36% 30.13 in 10.0 mi North 8.1 mph - N/A   Clear
9:55 AM 73.4 °F - 48.2 °F 41% 30.13 in 10.0 mi North 6.9 mph - N/A   Clear
10:15 AM 73.4 °F - 44.6 °F 36% 30.13 in 1.8 mi North 6.9 mph - N/A   Clear
10:35 AM 77.0 °F - 42.8 °F 29% 30.13 in 10.0 mi North 9.2 mph - N/A   Clear
10:55 AM 78.8 °F - 42.8 °F 28% 30.13 in 10.0 mi North 9.2 mph - N/A   Clear
11:15 AM 80.6 °F - 41.0 °F 24% 30.13 in 10.0 mi North 8.1 mph - N/A   Clear
11:35 AM 80.6 °F - 42.8 °F 26% 30.12 in 10.0 mi NNE 10.4 mph - N/A   Clear
11:55 AM 82.4 °F - 42.8 °F 25% 30.12 in 10.0 mi North 9.2 mph 16.1 mph N/A   Clear
12:15 PM 82.4 °F - 42.8 °F 25% 30.12 in 10.0 mi North 9.2 mph - N/A   Clear
12:35 PM 84.2 °F - 44.6 °F 25% 30.12 in 10.0 mi WNW 5.8 mph - N/A   Clear
12:55 PM 86.0 °F - 44.6 °F 23% 30.12 in 10.0 mi NE 11.5 mph - N/A   Clear
1:15 PM 87.8 °F - 44.6 °F 22% 30.11 in 10.0 mi NNW 4.6 mph - N/A   Clear
1:35 PM 87.8 °F - 42.8 °F 21% 30.11 in 10.0 mi NNE 11.5 mph - N/A   Clear
1:55 PM 87.8 °F - 42.8 °F 21% 30.10 in 10.0 mi NNW 5.8 mph - N/A   Clear
2:15 PM 87.8 °F - 44.6 °F 22% 30.10 in 10.0 mi North 8.1 mph - N/A   Clear
2:35 PM 87.8 °F - 44.6 °F 22% 30.09 in 10.0 mi North 11.5 mph - N/A   Clear
2:55 PM 89.6 °F - 44.6 °F 21% 30.08 in 10.0 mi North 4.6 mph - N/A   Clear
3:15 PM 89.6 °F - 44.6 °F 21% 30.07 in 10.0 mi ENE 9.2 mph - N/A   Clear
3:35 PM 91.4 °F - 44.6 °F 20% 30.07 in 10.0 mi NE 8.1 mph - N/A   Clear
3:55 PM 91.4 °F - 46.4 °F 21% 30.06 in 10.0 mi North 6.9 mph - N/A   Clear
4:15 PM 91.4 °F - 44.6 °F 20% 30.05 in 10.0 mi NNE 9.2 mph 19.6 mph N/A   Clear
4:35 PM 91.4 °F - 50.0 °F 24% 30.05 in 10.0 mi NW 10.4 mph - N/A   Clear
4:55 PM 89.6 °F 87.7 °F 55.4 °F 31% 30.04 in 10.0 mi NW 13.8 mph - N/A   Clear
5:15 PM 87.8 °F 86.1 °F 55.4 °F 33% 30.04 in 10.0 mi WNW 15.0 mph - N/A   Clear
5:35 PM 86.0 °F 84.2 °F 53.6 °F 33% 30.04 in 10.0 mi WNW 18.4 mph - N/A   Clear
5:55 PM 84.2 °F - 51.8 °F 33% 30.04 in 10.0 mi WNW 16.1 mph 23.0 mph N/A   Clear
6:15 PM 84.2 °F - 51.8 °F 33% 30.03 in 10.0 mi WNW 15.0 mph 20.7 mph N/A   Clear
6:35 PM 82.4 °F - 51.8 °F 35% 30.04 in 10.0 mi West 17.3 mph - N/A   Clear
6:55 PM 78.8 °F - 51.8 °F 39% 30.05 in 10.0 mi WNW 17.3 mph 23.0 mph N/A   Clear
7:15 PM 78.8 °F - 51.8 °F 39% 30.05 in 10.0 mi WNW 19.6 mph - N/A   Clear
7:35 PM 75.2 °F - 50.0 °F 41% 30.05 in 10.0 mi WNW 20.7 mph 26.5 mph N/A   Clear
7:55 PM 73.4 °F - 48.2 °F 41% 30.05 in 10.0 mi WNW 18.4 mph 24.2 mph N/A   Clear
8:15 PM 69.8 °F - 48.2 °F 46% 30.05 in 10.0 mi WNW 20.7 mph 26.5 mph N/A   Clear
8:35 PM 69.8 °F - 48.2 °F 46% 30.06 in 10.0 mi West 13.8 mph 24.2 mph N/A   Clear
8:55 PM 66.2 °F - 48.2 °F 52% 30.06 in 10.0 mi West 18.4 mph 21.9 mph N/A   Clear
9:15 PM 64.4 °F - 48.2 °F 56% 30.07 in 10.0 mi West 15.0 mph - N/A   Clear
9:35 PM 64.4 °F - 48.2 °F 56% 30.07 in 10.0 mi West 16.1 mph - N/A   Clear
9:55 PM 62.6 °F - 48.2 °F 59% 30.08 in 10.0 mi WNW 16.1 mph 21.9 mph N/A   Clear
10:15 PM 62.6 °F - 48.2 °F 59% 30.08 in 10.0 mi West 17.3 mph 21.9 mph N/A   Clear
10:35 PM 62.6 °F - 48.2 °F 59% 30.09 in 10.0 mi WNW 13.8 mph - N/A   Clear
10:55 PM 60.8 °F - 48.2 °F 63% 30.10 in 10.0 mi WNW 16.1 mph 21.9 mph N/A   Clear
11:15 PM 60.8 °F - 48.2 °F 63% 30.10 in 10.0 mi WNW 15.0 mph - N/A   Clear
11:35 PM 60.8 °F - 48.2 °F 63% 30.11 in 10.0 mi WNW 12.7 mph - N/A   Clear
11:55 PM 59.0 °F - 48.2 °F 67% 30.11 in 10.0 mi WNW 12.7 mph - N/A   Clear